Location: Forli
(44.2227°N, 12.0407°E)
Time: 14:46:04
(UTC+02:00)

PCSat - Pass Details

Date: 17 April 2026
Orbit: 781 x 790 km, 67.1° (Epoch: 18 May)

Event Time Altitude Azimuth Distance (km) Brightness Sun altitude
Rises 01:54:04 0° 316° (NW) 3,292 13.2 -34.5°
Reaches altitude 10° 01:56:56 10° 302° (WNW) 2,358 12.2 -34.4°
Enters shadow 01:57:01 10° 302° (WNW) 2,336 12.2 -34.4°
